This demonstration page uses our WeatherBlox Daily Observations layout. Learn more.

Left ArrowRight Arrow

39.92423, -83.80882

Hourly Observations for January 8, 2018

Temp ( °F °C ) Dew Point ( °F °C ) Humidity (%) Winds ( mph kmh ) Pressure ( in mb ) Visibility ( mi km ) Precip ( " mm )
12:56 am 00:56 Cloudy 33 0.6 20 -6.7 58 58 S 10 17 30.09 1019 10 16.0934 0 0.0254
1:56 am 01:56 Cloudy with Light Rain 33 0.6 21 -6.1 61 61 SSW 14 22 30.06 1018 10 16.0934 0 0.0254
2:56 am 02:56 Cloudy with Light Wintry Mix 32 0 28 -2.2 85 85 SSW 12 19 30.05 1018 10 16.0934 0.01 0.254
3:44 am 03:44 Cloudy with Light Wintry Mix 32 0 28 -2 87 87 SW 16 26 30.09 1019 10 16.0934 0 0.0254
3:56 am 03:56 Cloudy with Light Wintry Mix 32 0 28 -2.2 85 85 SW 16 26 30.06 1018 10 16.0934 0 0.0254
4:20 am 04:20 Cloudy with Light Freezing Rain 32 0 28 -2 87 87 SSW 16 26 30.09 1019 5 8.0467 0.03 0.762
4:52 am 04:52 Cloudy with Light Freezing Rain 32 0 30 -1 93 93 SW 22 35 30.06 1018 9 14.48406 0.05 1.27
4:56 am 04:56 Cloudy with Light Freezing Rain 32 0 30 -1.1 92 92 SW 17 28 30.06 1018 8 12.87472 0.05 1.27
5:08 am 05:08 Windy with Snow Likely 32 0 30 -1 93 93 SW 22 35 30.06 1018 5 8.0467 0.01 0.254
5:56 am 05:56 Cloudy with Light Wintry Mix 32 0 31 -0.6 96 96 SW 17 28 30.06 1018 7 11.26538 0.03 0.762
6:37 am 06:37 Cloudy with Light Wintry Mix 32 0 30 -1 93 93 SW 20 31 30.09 1019 6 9.65604 0.02 0.508
6:56 am 06:56 Cloudy with Light Snow 32 0 31 -0.6 96 96 SW 18 30 30.06 1018 7 11.26538 0.02 0.508
7:56 am 07:56 Windy with Snow Likely N/A N/A N/A SW 21 33 N/A 6 9.65604 0.01 0.254
8:40 am 08:40 Windy with Snow Likely 32 0 30 -1 93 93 SW 20 31 30.09 1019 2 3.21868 0 0.0254
8:56 am 08:56 Windy with Snow Likely 33 0.6 31 -0.6 92 92 SW 21 33 30.07 1018 2 3.21868 0 0.0254
9:28 am 09:28 Cloudy with Light Snow 34 1 32 0 93 93 SW 16 26 30.12 1020 3 4.82802 0 0.0254
9:56 am 09:56 Cloudy with Light Rain 33 0.6 32 0 96 96 SW 17 28 30.09 1019 6 9.65604 0 0.0254
10:56 am 10:56 Cloudy with Mist and Fog 33 0.6 32 0 96 96 SW 15 24 30.1 1019 3 4.82802 0 0.0254
11:15 am 11:15 Cloudy with Mist and Fog 34 1 32 0 93 93 SW 14 22 30.12 1020 4 6.43736 0 0
11:56 am 11:56 Cloudy with Mist and Fog 34 1.1 33 0.6 97 97 SW 14 22 30.09 1019 4 6.43736 0 0
12:15 pm 12:15 Cloudy with Mist and Fog 34 1 34 1 100 100 WSW 16 26 30.12 1020 2.5 4.02335 0 0
12:48 pm 12:48 Cloudy with Mist and Fog 34 1 34 1 100 100 WSW 13 20 30.09 1019 1.75 2.816345 0 0
12:56 pm 12:56 Cloudy with Mist and Fog 34 1.1 33 0.6 97 97 WSW 15 24 30.07 1018 1.75 2.816345 0 0
1:25 pm 13:25 Cloudy with Mist and Fog 34 1 34 1 100 100 WSW 16 26 30.09 1019 1 1.60934 0 0
1:27 pm 13:27 Cloudy with Mist and Fog 34 1 34 1 100 100 WSW 15 24 30.09 1019 0.75 1.207005 0 0
1:56 pm 13:56 Cloudy with Light Wintry Mix 34 1.1 33 0.6 97 97 WSW 13 20 30.06 1018 0.75 1.207005 0 0.0254
2:06 pm 14:06 Cloudy with Light Rain 34 1 34 1 100 100 SW 13 20 30.09 1019 1 1.60934 0 0.0254
2:14 pm 14:14 Cloudy with Mist and Fog 34 1 34 1 100 100 WSW 12 19 30.09 1019 1.25 2.011675 0 0.0254
2:36 pm 14:36 Cloudy with Mist and Fog 36 2 34 1 93 93 WSW 14 22 30.09 1019 2 3.21868 0 0.0254
2:56 pm 14:56 Cloudy with Mist and Fog 35 1.7 34 1.1 96 96 WSW 12 19 30.07 1018 2 3.21868 0 0.0254
3:48 pm 15:48 Cloudy with Mist and Fog 36 2 34 1 93 93 WSW 10 17 30.12 1020 3 4.82802 0 0
3:56 pm 15:56 Cloudy with Mist and Fog 35 1.7 34 1.1 96 96 WSW 12 19 30.08 1019 3 4.82802 0 0
4:43 pm 16:43 Cloudy with Mist and Fog 36 2 34 1 93 93 WSW 12 19 30.12 1020 2.5 4.02335 0 0
4:56 pm 16:56 Cloudy with Mist and Fog 35 1.7 34 1.1 96 96 WSW 10 17 30.1 1019 2 3.21868 0 0
5:08 pm 17:08 Cloudy with Mist and Fog 36 2 34 1 93 93 WSW 10 17 30.12 1020 3 4.82802 0 0
5:56 pm 17:56 Cloudy 34 1.1 33 0.6 97 97 WSW 10 17 30.13 1020 7 11.26538 0 0
6:56 pm 18:56 Cloudy 34 1.1 33 0.6 97 97 W 12 19 30.15 1021 10 16.0934 0 0
7:56 pm 19:56 Cloudy 34 1.1 33 0.6 97 97 W 13 20 30.18 1022 10 16.0934 0 0
8:56 pm 20:56 Cloudy 34 1.1 32 0 92 92 W 12 19 30.18 1022 9 14.48406 0 0
9:56 pm 21:56 Cloudy 34 1.1 31 -0.6 89 89 WSW 9 15 30.19 1022 10 16.0934 0 0
10:56 pm 22:56 Cloudy 34 1.1 31 -0.6 89 89 W 15 24 30.19 1022 9 14.48406 0 0
11:56 pm 23:56 Cloudy 33 0.6 31 -0.6 92 92 WSW 14 22 30.2 1023 10 16.0934 0 0

Powered by AerisWeather